Zurück zum Katalog

STARLINK-37066

AktivKommunikationVLEO
NORAD 68081·PAYLOAD·🇺🇸 United States

Gestartet Mar 4, 2026 von Vandenberg Space Force Base

Loading…

Nächste Überflüge (nächste 24 Stunden)

TLE

AktuellSource: CelesTrak SupGP

Epoche: Sep 15, 2026, 02:47 UTC

1 68081C 26042N   26258.11645833  .00047978  00000+0  14177-2 0  2585
2 68081  53.1595  13.1647 0001054  94.4091  35.4607 15.34363510    19

Verfolge STARLINK-37066 in Echtzeit mit AllMySat

Download on the App Store